sat.trackr.live / text

‹ back to catalog

UNKNOWN

NORAD 81323

UNKNOWN UNKNOWN UNKNOWN

§ Identity

Operator
Country
Launch date
Launch site
Launch vehicle
Mass (kg)
RCS (m²)

External: N2YO · Heavens-Above

§ Orbital elements

Epoch: 2026-05-22T03:52:07.552992Z

Period
99.19 min
Inclination
65.7497°
Eccentricity
0.0328497
Mean motion
14.51831251 rev/d
Perigee alt
486.5 km
Apogee alt
952.8 km
Semi-major
7,097.8 km
B*
1.2436e-3
RAAN
297.8730°
Arg perigee
229.4412°
Mean anomaly
127.7668°
Rev number
13,631

§ Raw data

UNKNOWN1 81323U          26142.16119853  .00010109  00000+0  12436-2 0  99942 81323  65.7497 297.8730 0328497 229.4412 127.7668 14.51831251136312

JSON: /api/v1/satellites/81323 · /tle

For live sub-satellite position, see the globe view (requires WebGL).

§ Visibility from observer

Set your observer location to see the next 7 days of passes ≥ 10°. The values pass through the URL so the page stays shareable.

No JS? Fill the form by hand. The geolocation button needs JavaScript.